time_stamp(utc),avg(mph),gust(mph),direction(deg),12m_air_temp(f),sonic_u(cm/s),sonic_v(cm/s),sonic_w(cm/s),pressure,2m_air_temp(f),pyranometer(W/m^2)
"2017-08-18 00:02:42+00",8.9,11.9,,77.3,3,-371,-14,1014.37,77.2,0
"2017-08-18 00:07:42+00",7.6,12.6,,77.4,-12,-314,-4,1014.37,77.2,0
"2017-08-18 00:12:42+00",8.4,10.4,,77.4,20,-360,-10,1014.3,77.4,0
"2017-08-18 00:17:42+00",8.1,11.1,,77.4,43,-339,-23,1014.27,77.4,0
"2017-08-18 00:22:42+00",8.6,10.6,,77.3,38,-338,-81,1014.37,77.3,0
"2017-08-18 00:27:42+00",8.0,10.0,,77.3,-25,-317,-67,1014.4,77.3,0
"2017-08-18 00:32:42+00",8.3,12.3,,77.3,-76,-319,-56,1014.28,77.2,0
"2017-08-18 00:37:42+00",7.0,10.0,,77.4,-33,-274,-51,1014.29,77.3,0
"2017-08-18 00:42:42+00",7.5,9.5,,77.4,-73,-307,-54,1014.12,77.3,0
"2017-08-18 00:47:42+00",8.7,10.7,,77.4,-65,-347,-82,1014.08,77.3,0
"2017-08-18 00:52:42+00",9.5,11.5,,77.4,-137,-375,-71,1014.09,77.3,0
"2017-08-18 00:57:42+00",8.8,11.8,,77.3,-110,-355,-68,1014.19,77.2,0
"2017-08-18 01:02:42+00",10.4,13.4,,77.3,-141,-417,-100,1014.29,77.1,0
"2017-08-18 01:07:42+00",9.2,12.2,,77.3,-133,-353,-54,1014.16,77.1,0
"2017-08-18 01:12:42+00",8.4,10.4,,77.2,-58,-323,-72,1014.14,77,0
"2017-08-18 01:17:42+00",9.5,12.5,,77.2,-54,-386,-89,1014.2,77,0
"2017-08-18 01:22:42+00",8.7,10.7,,77.2,-57,-362,-64,1014.16,77,0
"2017-08-18 01:27:42+00",7.5,9.5,,77.2,-77,-306,-44,1014.18,77,0
"2017-08-18 01:32:42+00",9.4,12.4,,77.2,-114,-387,-59,1014.31,77,0
"2017-08-18 01:37:42+00",8.7,11.7,,77.3,-100,-361,-71,1014.39,77,0
"2017-08-18 01:42:42+00",9.8,13.8,,77.3,-110,-408,-84,1014.38,77,0
"2017-08-18 01:47:42+00",9.7,11.7,,77.3,-119,-401,-69,1014.32,77.1,0
"2017-08-18 01:52:42+00",7.9,9.9,,77.2,-85,-299,-47,1014.34,77.1,0
"2017-08-18 01:57:42+00",10.0,13.0,,77.3,-71,-395,-82,1014.28,77.1,0
"2017-08-18 02:02:42+00",9.8,14.8,,77.2,-40,-379,-76,1014.19,77,0
"2017-08-18 02:07:42+00",10.3,14.3,,77.1,-77,-397,-88,1014.3,76.9,0
"2017-08-18 02:12:42+00",9.4,12.4,,77.1,-101,-360,-70,1014.26,76.9,0
"2017-08-18 02:17:42+00",11.8,13.8,,77.2,-140,-477,-78,1014.34,76.9,0
"2017-08-18 02:22:42+00",10.0,13.0,,77.1,-115,-377,-62,1014.33,76.9,0
"2017-08-18 02:27:42+00",8.0,12.0,,77.1,-83,-300,-50,1014.34,76.9,0
"2017-08-18 02:32:42+00",9.8,12.8,,77,-110,-379,-64,1014.4,76.8,0
"2017-08-18 02:37:42+00",12.5,16.5,,77,-161,-481,-81,1014.33,76.7,0
"2017-08-18 02:42:42+00",11.5,17.5,,77,-185,-450,-89,1014.39,76.7,0
"2017-08-18 02:47:42+00",13.2,16.2,,77,-188,-523,-61,1014.37,76.7,0
"2017-08-18 02:52:42+00",14.2,17.2,,77,-207,-572,-46,1014.39,76.6,0
"2017-08-18 02:57:42+00",10.1,14.1,,77,-126,-396,-54,1014.35,76.7,0
"2017-08-18 03:02:42+00",12.4,15.4,,76.9,-211,-474,-82,1014.28,76.6,0
"2017-08-18 03:07:42+00",13.4,16.4,,76.9,-298,-533,-70,1014.21,76.6,0
"2017-08-18 03:12:42+00",11.9,15.9,,77,-273,-504,-12,1014.18,76.5,0
"2017-08-18 03:17:42+00",10.1,12.1,,76.9,-279,-474,-42,1014.24,76.5,0
"2017-08-18 03:22:42+00",10.9,12.9,,76.9,-279,-503,-37,1014.23,76.4,0
"2017-08-18 03:27:42+00",12.2,14.2,,76.9,-273,-556,-37,1014.23,76.3,0
"2017-08-18 03:32:42+00",12.6,14.6,,76.8,-295,-484,-31,1014.12,76.3,0
"2017-08-18 03:37:42+00",10.8,13.8,,76.7,-244,-415,-13,1014.22,76.3,0
"2017-08-18 03:42:42+00",11.0,13.0,,76.7,-202,-430,-26,1014.08,76.2,0
"2017-08-18 03:47:42+00",12.3,16.3,,76.7,-224,-491,-21,1014.05,76.1,0
"2017-08-18 03:52:42+00",12.6,14.6,,76.5,-212,-506,-34,1013.99,76,0
"2017-08-18 03:57:42+00",11.1,14.1,,76.4,-151,-454,-15,1014.09,75.9,0
"2017-08-18 04:02:42+00",11.0,14.0,,76.3,-169,-444,-22,1014.08,75.8,0
"2017-08-18 04:07:42+00",11.2,12.2,,76.2,-184,-445,-18,1013.99,75.8,0
"2017-08-18 04:12:42+00",11.2,15.2,,76.2,-156,-457,-24,1013.95,75.8,0
"2017-08-18 04:17:42+00",12.3,14.3,,76.2,-195,-498,-24,1013.91,75.8,0
"2017-08-18 04:22:42+00",10.3,13.3,,76.1,-109,-420,-18,1013.83,75.7,0
"2017-08-18 04:27:42+00",11.1,15.1,,76.2,-186,-452,-20,1013.83,75.7,0
"2017-08-18 04:32:42+00",11.7,15.7,,76.2,-211,-458,-18,1013.84,75.7,0
"2017-08-18 04:37:42+00",13.9,16.9,,76.2,-248,-554,-46,1013.68,75.7,0
"2017-08-18 04:42:42+00",14.3,18.3,,76.3,-277,-557,-46,1013.76,75.7,0
"2017-08-18 04:47:42+00",12.3,16.3,,76.2,-218,-487,-54,1013.68,75.6,0
"2017-08-18 04:52:42+00",10.1,13.1,,76.1,-149,-406,-39,1013.5,75.6,0
"2017-08-18 04:57:42+00",9.5,13.5,,76,-141,-381,-35,1013.48,75.5,0
"2017-08-18 05:02:42+00",10.4,12.4,,76,-157,-421,-29,1013.48,75.5,0
"2017-08-18 05:07:42+00",12.3,14.3,,76,-201,-488,-60,1013.57,75.5,0
"2017-08-18 05:12:42+00",9.6,12.6,,76,-134,-378,-29,1013.41,75.5,0
"2017-08-18 05:17:42+00",9.9,12.9,,76,-88,-407,-41,1013.27,75.5,0
"2017-08-18 05:22:42+00",9.2,13.2,,76,-90,-379,-17,1013.07,75.6,0
"2017-08-18 05:27:42+00",10.5,13.5,,76,-119,-429,-41,1013.04,75.6,0
"2017-08-18 05:32:42+00",10.5,17.5,,76.1,-116,-420,-28,1012.99,75.6,0
"2017-08-18 05:37:42+00",10.9,13.9,,76.1,-114,-446,-60,1012.94,75.7,0
"2017-08-18 05:42:42+00",9.5,13.5,,76.1,-92,-382,-17,1012.89,75.7,0
"2017-08-18 05:47:42+00",9.1,13.1,,76.1,-98,-377,-35,1012.75,75.8,0
"2017-08-18 05:52:42+00",10.1,12.1,,76.2,-62,-429,-42,1012.66,75.8,0
"2017-08-18 05:57:42+00",10.3,14.3,,76.2,-130,-419,-38,1012.75,75.8,0
"2017-08-18 06:02:42+00",10.7,13.7,,76.1,-116,-426,-39,1012.73,75.8,0
"2017-08-18 06:07:42+00",9.9,14.9,,76.1,-71,-428,-35,1012.67,75.7,0
"2017-08-18 06:12:42+00",9.5,13.5,,76.1,-88,-397,-37,1012.57,75.7,0
"2017-08-18 06:17:42+00",8.8,10.8,,76,-84,-372,-33,1012.51,75.7,0
"2017-08-18 06:22:42+00",10.1,14.1,,76.1,-100,-419,-38,1012.52,75.7,0
"2017-08-18 06:27:42+00",11.0,13.0,,76,-42,-462,-50,1012.44,75.7,0
"2017-08-18 06:32:42+00",9.4,12.4,,76.1,-62,-399,-26,1012.53,75.7,0
"2017-08-18 06:37:42+00",10.5,13.5,,76.1,-80,-443,-31,1012.55,75.6,0
"2017-08-18 06:42:42+00",10.3,13.3,,76.1,-92,-440,-17,1012.49,75.6,0
"2017-08-18 06:47:42+00",11.2,14.2,,76.1,-137,-470,-16,1012.48,75.6,0
"2017-08-18 06:52:42+00",11.4,14.4,,76.1,-136,-478,-13,1012.47,75.6,0
"2017-08-18 06:57:42+00",13.8,16.8,,76,-143,-584,-39,1012.58,75.5,0
"2017-08-18 07:02:42+00",13.8,17.8,,76,-132,-582,-73,1012.49,75.6,0
"2017-08-18 07:07:42+00",13.4,17.4,,76.1,-157,-563,-40,1012.49,75.7,0
"2017-08-18 07:12:42+00",13.4,20.4,,76.1,-133,-557,-51,1012.55,75.7,0
"2017-08-18 07:17:42+00",13.6,18.6,,76.2,-140,-578,-30,1012.48,75.8,0
"2017-08-18 07:22:42+00",13.3,20.3,,76.2,-122,-566,-16,1012.43,75.9,0
"2017-08-18 07:27:42+00",13.6,17.6,,76.2,-149,-580,-39,1012.15,75.9,0
"2017-08-18 07:32:42+00",13.5,15.5,,76.2,-155,-561,-35,1012.24,75.9,0
"2017-08-18 07:37:42+00",13.2,19.2,,76.2,-141,-556,-21,1012.31,75.9,0
"2017-08-18 07:42:42+00",11.2,15.2,,76.2,-148,-476,-19,1012.25,75.9,0
"2017-08-18 07:47:42+00",13.3,16.3,,76.2,-150,-545,-25,1012.17,75.9,0
"2017-08-18 07:52:42+00",11.7,13.7,,76.2,-96,-486,-25,1012.11,75.9,0
"2017-08-18 07:57:42+00",12.2,14.2,,76.2,-102,-499,-56,1012.12,75.9,0
"2017-08-18 08:02:42+00",11.9,15.9,,76.2,-113,-502,-30,1012.1,75.9,0
"2017-08-18 08:07:42+00",14.0,18.0,,76.2,-138,-583,-57,1012.05,75.9,0
"2017-08-18 08:12:42+00",14.5,19.5,,76.2,-130,-604,-75,1011.91,75.9,0
"2017-08-18 08:17:42+00",10.3,16.3,,76.1,-77,-432,-28,1011.98,75.8,0
"2017-08-18 08:22:42+00",13.2,17.2,,76.2,-109,-562,-32,1011.9,75.9,0
"2017-08-18 08:27:42+00",11.5,13.5,,76.2,-97,-491,-31,1012,75.9,0
"2017-08-18 08:32:42+00",11.2,16.2,,76.2,-96,-468,-27,1011.93,76,0
"2017-08-18 08:37:42+00",12.6,15.6,,76.2,-63,-543,-66,1011.93,76,0
"2017-08-18 08:42:42+00",13.0,16.0,,76.2,-116,-535,-75,1011.82,76,0
"2017-08-18 08:47:42+00",12.3,17.3,,76.2,-71,-522,-63,1011.79,75.9,0
"2017-08-18 08:52:42+00",12.4,17.4,,76.2,-82,-532,-47,1011.78,75.9,0
"2017-08-18 08:57:42+00",12.0,16.0,,76.2,-76,-501,-36,1011.74,76,0
"2017-08-18 09:02:42+00",13.8,18.8,,76.3,-126,-588,-30,1011.6,76,0
"2017-08-18 09:07:42+00",11.6,14.6,,76.2,-129,-492,-47,1011.64,76,0
"2017-08-18 09:12:42+00",12.0,16.0,,76.2,-81,-491,-58,1011.51,75.9,0
"2017-08-18 09:17:42+00",13.1,17.1,,76.2,-81,-541,-64,1011.39,75.9,0
"2017-08-18 09:22:42+00",13.2,16.2,,76.2,-104,-549,-68,1011.37,76,0
"2017-08-18 09:27:42+00",12.2,17.2,,76.2,-127,-494,-55,1011.39,76,0
"2017-08-18 09:32:42+00",11.9,14.9,,76.2,-140,-489,-61,1011.42,76,0
"2017-08-18 09:37:42+00",11.2,14.2,,76.2,-135,-446,-40,1011.35,76,0
"2017-08-18 09:42:42+00",13.3,16.3,,76.3,-175,-549,-52,1011.39,76,0
"2017-08-18 09:47:42+00",13.6,16.6,,76.3,-192,-549,-72,1011.51,76,0
"2017-08-18 09:52:42+00",14.6,18.6,,76.4,-174,-609,-50,1011.4,76.1,0
"2017-08-18 09:57:42+00",14.3,18.3,,76.5,-163,-596,-6,1011.53,76.1,0
"2017-08-18 10:02:42+00",14.9,17.9,,76.5,-208,-612,-9,1011.52,76.2,0
"2017-08-18 10:07:42+00",13.4,16.4,,76.5,-191,-552,7,1011.53,76.2,0
"2017-08-18 10:12:42+00",14.5,18.5,,76.5,-194,-592,-3,1011.53,76.3,0
"2017-08-18 10:17:42+00",12.3,15.3,,76.6,-174,-502,22,1011.53,76.3,0
"2017-08-18 10:22:42+00",15.2,20.2,,76.7,-250,-615,6,1011.55,76.4,0
"2017-08-18 10:27:42+00",16.8,19.8,,76.9,-289,-665,-8,1011.65,76.5,0
"2017-08-18 10:32:42+00",13.4,16.4,,76.9,-197,-536,13,1011.64,76.6,0
"2017-08-18 10:37:42+00",14.3,17.3,,76.9,-137,-608,-44,1011.57,76.7,0
"2017-08-18 10:42:42+00",16.1,21.1,,76.9,-174,-695,-37,1011.43,76.7,0
"2017-08-18 10:47:42+00",16.5,21.5,,76.9,-192,-682,6,1011.36,76.7,0
"2017-08-18 10:52:42+00",18.7,22.7,,77,-291,-753,-10,1011.47,76.9,0
"2017-08-18 10:57:42+00",21.2,24.2,,77.1,-404,-824,-10,1011.62,76.9,2
"2017-08-18 11:02:42+00",19.1,21.1,,77.2,-355,-747,-26,1011.62,77,5.2
"2017-08-18 11:07:42+00",17.3,22.3,,77.3,-283,-693,0,1011.61,77.1,3.1
"2017-08-18 11:12:42+00",17.3,20.3,,77.3,-315,-689,-15,1011.65,77.2,0.2
"2017-08-18 11:17:42+00",16.8,20.8,,77.4,-330,-659,9,1011.46,77.2,3.3
"2017-08-18 11:22:42+00",17.6,22.6,,77.5,-359,-681,-5,1011.42,77.4,8.4
"2017-08-18 11:27:42+00",17.5,21.5,,77.5,-248,-715,-19,1011.33,77.4,14.7
"2017-08-18 11:32:42+00",14.4,18.4,,77.5,-241,-578,7,1011.22,77.5,14.7
"2017-08-18 11:37:42+00",19.4,22.4,,77.5,-391,-748,-28,1011.19,77.5,23.6
"2017-08-18 11:42:42+00",21.0,25.0,,77.5,-394,-822,-31,1011.17,77.6,21.8
"2017-08-18 11:47:42+00",17.8,21.8,,77.6,-358,-691,1,1011.17,77.6,23.9
"2017-08-18 11:52:42+00",16.8,18.8,,77.6,-346,-660,-9,1011.24,77.7,28.6
"2017-08-18 11:57:42+00",17.0,20.0,,77.6,-338,-657,-14,1011.29,77.7,25.2
"2017-08-18 12:02:42+00",15.8,18.8,,77.7,-332,-612,6,1011.25,77.8,24.5
"2017-08-18 12:07:42+00",17.9,21.9,,77.7,-393,-682,-13,1011.26,77.8,19.7
"2017-08-18 12:12:42+00",15.2,17.2,,77.8,-319,-587,10,1011.28,77.9,15
"2017-08-18 12:17:42+00",15.0,18.0,,77.8,-310,-580,-1,1011.25,77.9,20.7
"2017-08-18 12:22:42+00",17.0,19.0,,77.8,-364,-666,-1,1011.2,77.9,15.5
"2017-08-18 12:27:42+00",18.2,20.2,,77.8,-417,-685,-14,1011.24,77.9,14.8
"2017-08-18 12:32:42+00",16.0,19.0,,77.9,-380,-606,12,1011.21,78,32.8
"2017-08-18 12:37:42+00",19.3,22.3,,78,-377,-750,-1,1011.17,78.1,37.4
"2017-08-18 12:42:42+00",20.2,23.2,,78.1,-389,-787,-15,1011.05,78.2,18.9
"2017-08-18 12:47:42+00",16.6,19.6,,78.1,-307,-652,4,1011.14,78.2,12.5
"2017-08-18 12:52:42+00",19.2,23.2,,78.2,-353,-752,-3,1011.17,78.3,35.1
"2017-08-18 12:57:42+00",16.8,21.8,,78.3,-309,-662,-4,1011.11,78.5,61.2
"2017-08-18 13:02:42+00",17.2,19.2,,78.4,-329,-673,-13,1011.17,78.7,59.1
"2017-08-18 13:07:42+00",18.6,22.6,,78.5,-375,-724,4,1011.16,78.8,54.1
"2017-08-18 13:12:42+00",18.3,21.3,,78.6,-429,-695,-1,1011.15,78.9,81
"2017-08-18 13:17:42+00",17.0,20.0,,78.7,-428,-641,10,1011.23,79.2,61.4
"2017-08-18 13:22:42+00",17.4,21.4,,78.6,-411,-656,-5,1011.21,79,25.5
"2017-08-18 13:27:42+00",21.4,26.4,,78.6,-573,-761,-34,1011.15,78.9,58.4
"2017-08-18 13:32:42+00",17.9,19.9,,78.7,-412,-682,-16,1011.2,79.1,54.2
"2017-08-18 13:37:42+00",19.9,21.9,,78.7,-612,-671,11,1011.33,79.1,18.9
"2017-08-18 13:42:42+00",18.1,24.1,,78.6,-457,-672,26,1011.35,78.9,11.3
"2017-08-18 13:47:42+00",20.2,23.2,,78.6,-483,-752,-2,1011.35,78.8,18.7
"2017-08-18 13:52:42+00",16.6,18.6,,78.7,-435,-623,30,1011.31,78.9,51.8
"2017-08-18 13:57:42+00",19.4,21.4,,78.8,-534,-695,-9,1011.38,79,33.4
"2017-08-18 14:02:42+00",19.9,22.9,,78.8,-436,-764,-15,1011.38,79.1,98.9
"2017-08-18 14:07:42+00",20.3,24.3,,79,-545,-724,-3,1011.3,79.5,128.9
"2017-08-18 14:12:42+00",18.2,23.2,,79.1,-362,-707,1,1011.28,79.8,219.1
"2017-08-18 14:17:42+00",20.8,22.8,,79.2,-512,-780,-12,1011.23,80.1,42.3
"2017-08-18 14:22:42+00",20.2,23.2,,78.7,-513,-759,5,1011.21,79.2,47.6
"2017-08-18 14:27:42+00",18.1,22.1,,78.4,-413,-689,18,1011.21,78.5,29.6
"2017-08-18 14:32:42+00",18.3,22.3,,78.5,-391,-702,3,1011.16,78.1,40.7
"2017-08-18 14:37:42+00",15.5,19.5,,78.5,-307,-627,-25,1011.23,78.1,74.1
"2017-08-18 14:42:42+00",17.9,20.9,,78.8,-341,-701,-45,1011.1,78.5,259.4
"2017-08-18 14:47:42+00",14.8,18.8,,79.3,-463,-515,-14,1011.08,79.1,275.3
"2017-08-18 14:52:42+00",15.9,18.9,,79.7,-433,-604,-36,1011.08,79.6,207
"2017-08-18 14:57:42+00",20.6,24.6,,79.7,-467,-791,-58,1011.1,79.8,85.8
"2017-08-18 15:02:42+00",17.3,20.3,,79.6,-357,-682,-33,1010.94,79.8,140
"2017-08-18 15:07:42+00",20.4,24.4,,79.7,-603,-697,13,1010.94,80,204.1
"2017-08-18 15:12:42+00",17.7,20.7,,80,-410,-672,3,1010.86,80.5,159.6
"2017-08-18 15:17:42+00",21.9,23.9,,80.1,-380,-863,-34,1010.77,80.9,497.8
"2017-08-18 15:22:42+00",19.2,24.2,,79.8,-310,-781,-9,1010.79,80.7,299.6
"2017-08-18 15:27:42+00",17.6,19.6,,79.8,-386,-679,14,1010.91,80.9,199.3
"2017-08-18 15:32:42+00",20.3,23.3,,79.8,-400,-780,-20,1010.99,81,242.9
"2017-08-18 15:37:42+00",18.3,22.3,,79.9,-364,-720,0,1010.94,81.1,184.9
"2017-08-18 15:42:42+00",20.3,23.3,,80,-395,-789,-15,1010.65,81,304.7
"2017-08-18 15:47:42+00",15.5,19.5,,80.8,-339,-600,21,1010.6,82,405.9
"2017-08-18 15:52:42+00",19.8,22.8,,80.9,-445,-760,-5,1010.71,82.9,553.6
"2017-08-18 15:57:42+00",19.8,22.8,,80.7,-553,-712,9,1010.76,82.5,169.4
"2017-08-18 16:02:42+00",15.0,19.0,,80.7,-278,-604,24,1010.84,82.2,223.3
"2017-08-18 16:07:42+00",19.0,24.0,,80.5,-323,-751,-21,1010.82,82.1,190.8
"2017-08-18 16:12:42+00",19.7,22.7,,80.4,-305,-781,-25,1010.73,82.1,391.7
"2017-08-18 16:17:42+00",20.4,24.4,,81.1,-352,-809,-19,1010.59,83,498.2
"2017-08-18 16:22:42+00",16.5,20.5,,81.5,-266,-667,-2,1010.5,83.6,474.6
"2017-08-18 16:27:42+00",19.4,22.4,,81,-358,-763,-1,1010.46,83.3,459.9
"2017-08-18 16:32:42+00",19.7,22.7,,81.5,-277,-811,-7,1010.51,83.6,500.6
"2017-08-18 16:37:42+00",19.1,23.1,,81.7,-359,-753,-1,1010.47,83.9,527.9
"2017-08-18 16:42:42+00",16.0,19.0,,81.5,-272,-640,1,1010.44,83.8,424.1
"2017-08-18 16:47:42+00",16.1,21.1,,81.5,-293,-647,7,1010.5,83.3,352.5
"2017-08-18 16:52:42+00",18.1,23.1,,81.4,-299,-719,-13,1010.41,83.5,215
"2017-08-18 16:57:42+00",17.9,20.9,,81.3,-330,-716,-11,1010.37,83.4,274.4
"2017-08-18 17:02:42+00",18.5,21.5,,81.4,-455,-694,1,1010.31,83.4,335.6
"2017-08-18 17:07:42+00",19.5,24.5,,81.5,-350,-774,-9,1010.19,83.5,230.9
"2017-08-18 17:12:42+00",17.4,20.4,,81.5,-226,-720,-9,1010.22,83.2,331.3
"2017-08-18 17:17:42+00",20.4,24.4,,81.5,-292,-831,-18,1010.11,83.1,373.9
"2017-08-18 17:22:42+00",18.1,21.1,,81.5,-324,-722,-6,1009.94,83.1,326.9
"2017-08-18 17:27:42+00",18.0,22.0,,82,-301,-720,7,1009.83,83.9,484.1
"2017-08-18 17:32:42+00",13.8,18.8,,81.8,-147,-576,25,1009.9,83.6,400
"2017-08-18 17:37:42+00",19.3,22.3,,82,-279,-780,-9,1009.82,83.9,457.7
"2017-08-18 17:42:42+00",14.1,19.1,,82.1,-137,-604,-15,1009.71,84,467.5
"2017-08-18 17:47:42+00",17.4,21.4,,81.7,-160,-725,-20,1009.67,83.6,476.1
"2017-08-18 17:52:42+00",16.6,23.6,,81.8,-186,-701,17,1009.62,83.7,474
"2017-08-18 17:57:42+00",19.3,24.3,,81.5,-189,-807,-45,1009.64,83.2,499.3
"2017-08-18 18:02:42+00",18.3,23.3,,81.8,-334,-721,4,1009.69,83.8,468.1
"2017-08-18 18:07:42+00",21.4,24.4,,81.3,-341,-856,-5,1009.68,83.8,472.3
"2017-08-18 18:12:42+00",21.2,26.2,,81.3,-349,-852,-12,1009.68,83.6,495.5
"2017-08-18 18:17:42+00",22.2,26.2,,81.3,-303,-895,-31,1009.63,83.5,517.5
"2017-08-18 18:22:42+00",21.7,25.7,,81.3,-430,-842,-17,1009.56,83.7,507.6
"2017-08-18 18:27:42+00",17.2,24.2,,81.9,-194,-724,-9,1009.41,84,349.9
"2017-08-18 18:32:42+00",19.8,22.8,,81.6,-285,-801,-15,1009.34,83.6,444.5
"2017-08-18 18:37:42+00",20.5,24.5,,81.5,-194,-848,-36,1009.31,83.4,437.9
"2017-08-18 18:42:42+00",17.1,24.1,,81.8,-188,-715,1,1009.2,83.5,464.2
"2017-08-18 18:47:42+00",20.7,27.7,,81.4,-222,-864,-13,1009.18,83.2,376.9
"2017-08-18 18:52:42+00",18.5,25.5,,81.3,-184,-775,1,1008.99,82.8,381.3
"2017-08-18 18:57:42+00",18.6,22.6,,81.3,-260,-758,5,1008.87,82.9,383.4
"2017-08-18 19:02:42+00",18.9,23.9,,81.4,-210,-792,-31,1008.68,83.1,417.6
"2017-08-18 19:07:42+00",20.7,25.7,,81.2,-284,-852,0,1008.63,83,409
"2017-08-18 19:12:42+00",23.6,28.6,,81.2,-299,-962,-26,1008.51,82.8,398
"2017-08-18 19:17:42+00",20.8,26.8,,81.4,-211,-860,-1,1008.47,82.8,379.2
"2017-08-18 19:22:42+00",21.1,29.1,,81.3,-245,-877,-20,1008.4,82.8,312
"2017-08-18 19:27:42+00",19.7,24.7,,81,-230,-814,-3,1008.4,82.5,277.1
"2017-08-18 19:32:42+00",15.3,21.3,,80.8,-149,-651,9,1008.41,82.2,226.4
"2017-08-18 19:37:42+00",20.9,25.9,,80.8,-292,-859,-19,1008.29,82.2,254.1
"2017-08-18 19:42:42+00",15.5,22.5,,80.7,-181,-646,25,1008.29,82,159.9
"2017-08-18 19:47:42+00",16.8,20.8,,80.6,-202,-708,3,1008.15,81.9,222.4
"2017-08-18 19:52:42+00",19.7,27.7,,80.5,-256,-821,-18,1008.03,81.7,174.7
"2017-08-18 19:57:42+00",17.4,25.4,,80.3,-201,-710,27,1007.99,81.4,114.9
"2017-08-18 20:02:42+00",20.6,25.6,,80.2,-324,-836,-18,1007.95,81.3,150.2
"2017-08-18 20:07:42+00",22.1,30.1,,80,-335,-901,-17,1007.96,81.1,125
"2017-08-18 20:12:42+00",23.2,29.2,,79.6,-388,-920,-9,1008,80.6,96.3
"2017-08-18 20:17:42+00",20.5,25.5,,79.7,-284,-840,-7,1008.08,80.6,67.5
"2017-08-18 20:22:42+00",18.1,24.1,,79.7,-207,-751,-14,1008.08,80.5,63.9
"2017-08-18 20:27:42+00",20.5,24.5,,79.6,-317,-829,-2,1008.05,80.4,70.8
"2017-08-18 20:32:42+00",18.3,23.3,,79.8,-241,-741,-13,1007.93,80.4,74.5
"2017-08-18 20:37:42+00",20.2,27.2,,79.7,-203,-834,-7,1007.84,80.3,73.6
"2017-08-18 20:42:42+00",15.9,23.9,,79.9,-214,-666,3,1007.88,80.6,93.7
"2017-08-18 20:47:42+00",18.9,21.9,,80,-306,-760,5,1007.85,80.8,143.2
"2017-08-18 20:52:42+00",23.2,26.2,,80.1,-428,-901,-37,1007.72,81,155.8
"2017-08-18 20:57:42+00",23.9,27.9,,80.1,-423,-942,-17,1007.74,81.1,113.9
"2017-08-18 21:02:42+00",24.0,27.0,,80.1,-453,-942,-12,1007.72,80.9,134.1
"2017-08-18 21:07:42+00",21.8,24.8,,80.1,-393,-866,5,1008,80.8,63.4
"2017-08-18 21:12:42+00",23.0,26.0,,80,-384,-910,-23,1008.09,80.7,116.1
"2017-08-18 21:17:42+00",19.8,23.8,,80.1,-309,-806,1,1008.3,80.7,70.9
"2017-08-18 21:22:42+00",22.0,28.0,,80.1,-347,-888,-20,1008.35,80.6,65.3
"2017-08-18 21:27:42+00",19.9,21.9,,80.1,-332,-802,-21,1008.42,80.7,95.1
"2017-08-18 21:32:42+00",17.4,20.4,,80.3,-326,-689,5,1008.49,80.9,135.5
"2017-08-18 21:37:42+00",19.9,24.9,,80.3,-423,-772,12,1008.62,81,22.2
"2017-08-18 21:42:42+00",16.5,19.5,,80.1,-276,-666,0,1008.51,80.8,57.2
"2017-08-18 21:47:42+00",19.1,24.1,,80.1,-384,-747,6,1008.52,80.8,87.5
"2017-08-18 21:52:42+00",18.8,22.8,,79.8,-402,-725,16,1008.3,80.5,0.2
"2017-08-18 21:57:42+00",20.3,23.3,,79.7,-313,-807,-15,1008.37,80.1,0
"2017-08-18 22:02:42+00",17.1,19.1,,79.6,-315,-672,1,1008.43,79.9,0
"2017-08-18 22:07:42+00",19.4,22.4,,79.5,-347,-758,-14,1008.57,79.7,0.2
"2017-08-18 22:12:42+00",20.0,23.0,,79.4,-359,-796,-11,1008.62,79.6,0
"2017-08-18 22:17:42+00",18.6,22.6,,79.4,-252,-761,-6,1008.3,79.5,0
"2017-08-18 22:22:42+00",21.9,25.9,,79.4,-328,-886,-11,1008.06,79.6,0
"2017-08-18 22:27:42+00",18.1,25.1,,79.3,-224,-743,-3,1008.22,79.5,0
"2017-08-18 22:32:42+00",15.2,20.2,,79.2,-205,-627,6,1008.17,79.4,0
"2017-08-18 22:37:42+00",19.0,24.0,,79.1,-304,-773,-4,1008.03,79.2,0
"2017-08-18 22:42:42+00",19.1,24.1,,79,-290,-773,-8,1008.1,79.1,0
"2017-08-18 22:47:42+00",16.7,21.7,,79,-202,-696,-7,1008.11,79.1,0
"2017-08-18 22:52:42+00",19.2,27.2,,79,-279,-783,-13,1008.13,79,0
"2017-08-18 22:57:42+00",19.1,23.1,,79,-319,-765,9,1008.17,79,0
"2017-08-18 23:02:42+00",16.9,20.9,,79,-269,-675,-13,1008.29,78.9,0
"2017-08-18 23:07:42+00",18.9,22.9,,79,-352,-747,-5,1008.24,78.9,0
"2017-08-18 23:12:42+00",18.2,22.2,,79.1,-279,-744,-5,1008.23,79,0
"2017-08-18 23:17:42+00",19.4,23.4,,79.2,-334,-763,-16,1008.31,79,0
"2017-08-18 23:22:42+00",17.0,21.0,,79.3,-274,-666,11,1008.36,79.1,0
"2017-08-18 23:27:42+00",18.7,23.7,,79.3,-302,-752,-15,1008.42,79.1,0
"2017-08-18 23:32:42+00",18.9,22.9,,79.3,-370,-739,-4,1008.62,79.1,0
"2017-08-18 23:37:42+00",17.7,22.7,,79.2,-343,-692,-11,1008.65,79.1,0
"2017-08-18 23:42:42+00",21.6,24.6,,79.4,-446,-827,-8,1008.64,79.2,0
"2017-08-18 23:47:42+00",17.8,19.8,,79.4,-406,-682,15,1008.54,79.2,0
"2017-08-18 23:52:42+00",19.1,25.1,,79.5,-359,-755,-6,1008.53,79.2,0
"2017-08-18 23:57:42+00",20.3,24.3,,79.7,-351,-802,-10,1008.53,79.3,0
